Погода в Воломе

Россия / Республика Карелия     63°44′40″N   31°55′22″E
темп.,
°C
ветер,
м/с
пор.,
м/с
влажн.,
%
обл.,
%
осадки,
мм/ч
давл.,
гПа
погр.,
м
8 марта, пн
пн800:00−17ссв51197100 0.1 1007342
03:00−20с4999100 0.1 1011250
06:00−23ссв389896 0.0 1012242
09:00−23ссв379789 0.0 1014249
12:00−19ссв359476 0.0 1016286
15:00−17ссв359177 0.0 1017406
18:00−20ссв239899 0.0 101869
21:00−24св229997 0.0 101921
9 марта, вт
вт900:00−26св129973 0.0 102119
03:00−28св119774 0.0 102219
06:00−29св11973 0.0 102319
09:00−26в01922 0.0 102419
12:00−18зюз11790 0.0 1024209
15:00−15зсз23790 0.0 1024309
18:00−18зсз22900 0.0 102420
21:00−21зсз22900 0.0 102620
10 марта, ср
ср1000:00−21сз12960 0.0 102720
03:00−21зсз22949 0.0 102820
06:00−21з128787 0.0 102820
09:00−19з228591 0.0 102946
12:00−13з238036 0.0 1029204
15:00−10зюз358419 0.0 1028306
18:00−14зюз35930 0.0 102897
21:00−18зюз36910 0.0 1028124
11 марта, чт
чт1100:00−18зюз39910 0.0 1028163
03:00−19зюз410850 0.0 1026212
06:00−19юз411840 0.0 1025243
09:00−17юз512810 0.0 1024329
12:00−11юз512670 0.0 1021596
15:00−9ююз611720 0.0 1019883
18:00−11ююз513800 0.0 1016724
21:00−13ю616870 0.0 1013534
12 марта, пт
пт1200:00−13ю6179055 0.0 1011540
03:00−12ю6169177 0.0 1008550
06:00−12ю61491100 0.1 1004526
09:00−12ю61590100 0.1 1002621
12:00−10ю71388100 0.1 1000696
15:00−8ю71387100 0.1 998876
18:00−7ю71490100 0.1 996945
21:00−7ю6158999 0.4 994808